Location: Oshawa
(43.9000°N, 78.8670°W)
Time: 03:22:51
(UTC-05:00)

Amateur Radio Satellites - All Passes

Search period start: 27 January 2015 02:52
Search period end: 28 January 2015 02:52
Location: Oshawa, 43.9000°N, 78.8670°W

Satellite Date Start Highest point End Downlink Frequencies (MHz)
Time Altitude Azimuth
M-CUBED/EXP-1 PRIME 27 Jan 02:53:00 02:56:58 43° 255° (WSW) 03:00:38 437.505
Gurwin Techsat 1B 27 Jan 02:54:09 02:59:29 70° 101° (ESE) 03:04:48 435.225
MOZHAYETS 4 27 Jan 03:05:53 03:08:55 18° 64° (ENE) 03:12:05
STARS 27 Jan 03:21:33 03:25:05 22° 267° (W) 03:28:32 437.465
AIST 2 27 Jan 03:22:59 03:26:50 35° 117° (ESE) 03:30:48 435.215
KKS-1 27 Jan 03:23:06 03:25:48 15° 271° (W) 03:28:20 437.445
HORYU 2 27 Jan 03:23:08 03:27:23 43° 98° (E) 03:31:37 437.375
RS-15 27 Jan 03:24:49 03:29:33 15° 98° (E) 03:35:11 29.354- 29.394
AUBIESAT-1 27 Jan 03:29:32 03:32:34 19° 260° (W) 03:35:22 437.475
BEESAT 2 27 Jan 03:40:32 03:44:39 67° 306° (NW) 03:48:50 435.950
O/OREOS (USA 219) 27 Jan 03:40:49 03:44:31 23° 257° (WSW) 03:48:06 437.305
DANDE 27 Jan 03:41:19 03:48:01 31° 85° (E) 03:55:20 436.750
Oscar 19 27 Jan 03:44:11 03:46:34 13° 302° (WNW) 03:48:43 437.125/150
JAS-2 27 Jan 03:52:24 03:56:06 18° 91° (E) 04:00:16 435.910
ITAMSAT 1 27 Jan 03:52:47 03:57:09 27° 295° (WNW) 04:01:26 435.822/435.867
BEESAT 3 27 Jan 03:57:38 04:01:34 41° 311° (NW) 04:05:33 437.485
ISS 27 Jan 03:57:53 04:00:58 35° 21° (NNE) 04:04:04 145.825
CUSAT 1 27 Jan 04:22:37 04:30:32 63° 95° (E) 04:38:53 437.405
PRISM 27 Jan 04:23:27 04:24:54 12° 62° (ENE) 04:26:31 437.425
PCSat 27 Jan 04:27:08 04:31:54 33° 111° (ESE) 04:36:46 145.827
AO-7 27 Jan 04:30:35 04:38:55 68° 104° (ESE) 04:47:10 29.400- 29.500
Gurwin Techsat 1B 27 Jan 04:35:25 04:38:58 18° 299° (WNW) 04:42:20 435.225
MOZHAYETS 4 27 Jan 04:41:19 04:45:49 52° 260° (W) 04:50:20
GONETS M04 27 Jan 04:43:43 04:47:18 12° 310° (NW) 04:50:17
CUBESAT XI-V 27 Jan 04:51:09 04:54:05 17° 64° (ENE) 04:57:10 437.345
YUBILEINY 27 Jan 04:51:15 04:54:44 13° 51° (NE) 04:58:49 435.215
HORYU 2 27 Jan 05:00:29 05:03:49 20° 295° (WNW) 05:07:01 437.375
AIST 2 27 Jan 05:01:46 05:05:32 29° 315° (NW) 05:09:18 435.215
BEESAT 2 27 Jan 05:21:56 05:23:44 12° 327° (NNW) 05:25:26 435.950
DANDE 27 Jan 05:22:50 05:30:56 69° 284° (WNW) 05:39:38 436.750
RS-15 27 Jan 05:29:18 05:40:02 69° 118° (ESE) 05:50:56 29.354- 29.394
STRAND 1 27 Jan 05:33:03 05:37:37 36° 68° (ENE) 05:42:17 437.568
ISS 27 Jan 05:34:23 05:37:32 42° 219° (SW) 05:40:41 145.825
JAS-2 27 Jan 05:36:13 05:41:42 67° 287° (WNW) 05:47:48 435.910
Cubesat XI-IV 27 Jan 05:36:21 05:40:17 21° 91° (E) 05:44:21 437.490
PRISM 27 Jan 05:55:49 05:59:56 70° 258° (WSW) 06:04:03 437.425
CUTE-I 27 Jan 05:56:34 06:01:17 31° 95° (E) 06:06:03 437.470
CUSAT 1 27 Jan 06:06:44 06:14:09 35° 295° (WNW) 06:21:35 437.405
PCSat 27 Jan 06:10:10 06:15:16 40° 310° (NW) 06:20:23 145.827
AO-7 27 Jan 06:24:06 06:31:13 32° 304° (NW) 06:38:08 29.400- 29.500
CUBESAT XI-V 27 Jan 06:26:39 06:31:11 55° 261° (W) 06:35:43 437.345
YUBILEINY 27 Jan 06:45:19 06:53:59 61° 76° (ENE) 07:02:41 435.215
DANDE 27 Jan 07:10:39 07:16:15 18° 306° (NW) 07:21:33 436.750
STRAND 1 27 Jan 07:12:25 07:16:54 30° 265° (W) 07:21:20 437.568
Cubesat XI-IV 27 Jan 07:15:32 07:20:47 55° 289° (WNW) 07:26:01 437.490
JAS-2 27 Jan 07:25:00 07:26:07 10° 303° (WNW) 07:26:54 435.910
CUTE-I 27 Jan 07:36:30 07:41:27 37° 292° (WNW) 07:46:19 437.470
RS-15 27 Jan 07:42:56 07:53:13 43° 324° (NW) 08:03:37 29.354- 29.394
PCSat 27 Jan 07:59:20 08:00:20 10° 333° (NNW) 08:01:10 145.827
SEEDS 27 Jan 08:01:48 08:01:56 10° 86° (E) 08:02:20 437.485
COMPASS 1 27 Jan 08:29:29 08:32:17 18° 91° (E) 08:35:13 437.405
UNISAT 6 27 Jan 08:31:32 08:33:10 12° 60° (ENE) 08:35:01 437.425
CANX-2 27 Jan 08:35:57 08:39:46 32° 96° (E) 08:43:35 2200.000
YUBILEINY 27 Jan 08:42:55 08:50:22 31° 276° (W) 08:57:37 435.215
BRITE-PL 27 Jan 08:53:14 08:58:57 70° 100° (E) 09:04:29 437.365/2234.400
Oscar 11 27 Jan 08:54:32 08:56:56 15° 89° (E) 08:59:30 145.826/435.025
POLYITAN 1 27 Jan 08:55:12 08:56:18 11° 61° (ENE) 08:57:37 437.675
HO-68 27 Jan 08:55:51 09:02:51 54° 101° (E) 09:09:51 435.675
AAUSAT CUBESAT 2 27 Jan 08:56:59 09:00:40 31° 95° (E) 09:04:23 437.432
CUTE 1.7 + AOD 2 27 Jan 09:00:14 09:04:25 55° 99° (E) 09:08:33 437.475
GOMX 1 27 Jan 09:00:48 09:06:14 59° 99° (E) 09:11:26 467.674
ANTELSAT 27 Jan 09:04:54 09:08:39 24° 67° (ENE) 09:12:29 437.575/2403.000
DELFI C3 27 Jan 09:06:30 09:08:51 15° 90° (E) 09:11:22 145.870
BUGSAT 1 27 Jan 09:06:50 09:07:17 10° 61° (ENE) 09:07:57 437.445
TIGRISAT 27 Jan 09:13:46 09:17:46 29° 68° (ENE) 09:21:51 435.000
POPSAT HIP 1 27 Jan 09:14:42 09:17:26 17° 64° (ENE) 09:20:19 437.405
DUCHIFAT 1 27 Jan 09:18:35 09:21:29 18° 65° (ENE) 09:24:30 145.980
CUBEBUG 2 27 Jan 09:20:14 09:23:42 21° 91° (E) 09:27:10 437.445
DOVE 4 27 Jan 09:24:08 09:29:25 70° 101° (ESE) 09:34:27 437.250
VERMONT LUNAR 27 Jan 09:24:38 09:26:54 17° 154° (SSE) 09:29:13 437.305
UKube-1 27 Jan 09:28:05 09:31:11 19° 92° (E) 09:34:24 .
CINEMA 3 27 Jan 09:28:34 09:33:16 44° 97° (E) 09:37:47 145.822/145.860
SEEDS 27 Jan 09:34:11 09:38:24 73° 285° (WNW) 09:42:33 437.485
ZACube-1 27 Jan 09:38:00 09:41:27 22° 92° (E) 09:44:55 437.345
DX 1 27 Jan 09:45:33 09:49:26 30° 96° (E) 09:53:21 434.975-435.025
FUNcube-1 27 Jan 09:50:28 09:54:21 29° 94° (E) 09:58:11 145.935
NANOSAT C BR1 27 Jan 09:51:23 09:55:20 39° 71° (ENE) 09:59:22 145.865
50 SAT 27 Jan 09:57:27 09:59:25 14° 89° (E) 10:01:35 437.505
HUMSAT D 27 Jan 09:59:11 10:02:17 20° 91° (E) 10:05:27 437.325/437.525
AISAT 27 Jan 09:59:44 10:02:41 18° 91° (E) 10:05:48 437.250
RS-15 27 Jan 10:00:47 10:09:28 25° 357° (N) 10:18:21 29.354- 29.394
QB50P2 27 Jan 10:04:06 10:08:17 55° 73° (ENE) 10:12:31 145.880/145.840
COMPASS 1 27 Jan 10:04:19 10:08:16 40° 288° (WNW) 10:12:09 437.405
UWE-3 27 Jan 10:04:33 10:08:59 50° 99° (E) 10:13:17 435.000/436.395/437.385
UNISAT 6 27 Jan 10:04:36 10:09:20 90° 256° (WSW) 10:14:05 437.425
PHONESAT 2.4 27 Jan 10:09:27 10:12:07 20° 155° (SSE) 10:14:51 2401.200-2431.200
CANX-2 27 Jan 10:12:10 10:15:36 24° 293° (WNW) 10:18:57 2200.000
QB50P1 27 Jan 10:14:12 10:18:26 70° 75° (ENE) 10:22:44 145.935-145.965
BEESAT 2 27 Jan 10:21:54 10:24:44 17° 38° (NE) 10:27:36 435.950
POLYITAN 1 27 Jan 10:27:21 10:31:39 84° 257° (WSW) 10:36:01 437.675
VELOX 1 27 Jan 10:28:27 10:32:30 33° 96° (E) 10:36:35 145.980
Oscar 11 27 Jan 10:29:18 10:33:31 52° 287° (WNW) 10:37:41 145.826/435.025
BRITE-PL 27 Jan 10:32:49 10:36:55 20° 298° (WNW) 10:40:47 437.365/2234.400
AAUSAT CUBESAT 2 27 Jan 10:32:52 10:36:15 24° 292° (WNW) 10:39:32 437.432
CUTE 1.7 + AOD 2 27 Jan 10:37:27 10:39:58 15° 296° (WNW) 10:42:20 437.475
BEESAT 3 27 Jan 10:38:03 10:41:29 24° 43° (NE) 10:44:56 437.485
BUGSAT 1 27 Jan 10:38:06 10:42:12 83° 257° (WSW) 10:46:23 437.445
GOMX 1 27 Jan 10:39:46 10:43:55 22° 297° (WNW) 10:47:51 467.674
DELFI C3 27 Jan 10:40:32 10:44:24 44° 288° (WNW) 10:48:15 145.870
ANTELSAT 27 Jan 10:40:50 10:45:17 39° 263° (W) 10:49:43 437.575/2403.000
HO-68 27 Jan 10:44:04 10:50:19 33° 299° (WNW) 10:56:26 435.675
CUBEBUG 1 27 Jan 10:44:15 10:47:34 21° 92° (E) 10:51:00 437.445
SO-50 27 Jan 10:46:46 10:51:02 42° 118° (ESE) 10:55:30 436.795
POPSAT HIP 1 27 Jan 10:48:51 10:53:01 49° 261° (W) 10:57:13 437.405
AIST 1 27 Jan 10:48:58 10:51:46 18° 87° (E) 10:54:41
TIGRISAT 27 Jan 10:50:11 10:54:28 33° 265° (W) 10:58:42 435.000
GONETS M04 27 Jan 10:52:28 10:57:37 17° 55° (NE) 11:03:13
DUCHIFAT 1 27 Jan 10:52:57 10:57:03 45° 261° (W) 11:01:11 145.980
CUBEBUG 2 27 Jan 10:56:16 11:00:38 41° 289° (WNW) 11:04:50 437.445
VERMONT LUNAR 27 Jan 11:01:14 11:04:32 40° 169° (S) 11:07:52 437.305
DOVE 4 27 Jan 11:03:07 11:06:36 18° 298° (WNW) 11:09:50 437.250
UKube-1 27 Jan 11:03:27 11:07:36 42° 289° (WNW) 11:11:41 .
CINEMA 3 27 Jan 11:06:19 11:10:12 23° 295° (WNW) 11:13:52 145.822/145.860
ZACube-1 27 Jan 11:13:51 11:18:00 37° 290° (WNW) 11:22:00 437.345
DX 1 27 Jan 11:21:54 11:25:38 27° 293° (WNW) 11:29:19 434.975-435.025
TISAT 1 27 Jan 11:24:41 11:26:39 13° 88° (E) 11:28:49 437.305
FUNcube-1 27 Jan 11:26:50 11:30:41 28° 292° (WNW) 11:34:23 145.935
NANOSAT C BR1 27 Jan 11:28:13 11:31:25 20° 268° (W) 11:34:32 145.865
ESTCUBE 1 27 Jan 11:30:47 11:35:18 68° 101° (ESE) 11:39:49 437.505/2401.250
50 SAT 27 Jan 11:30:59 11:34:57 51° 287° (WNW) 11:38:52 437.505
PCSat 27 Jan 11:32:44 11:33:05 10° 26° (NNE) 11:33:37 145.827
HUMSAT D 27 Jan 11:34:19 11:38:17 37° 289° (WNW) 11:42:09 437.325/437.525
AISAT 27 Jan 11:35:17 11:39:39 49° 289° (WNW) 11:44:00 437.250
UWE-3 27 Jan 11:42:01 11:45:11 18° 296° (WNW) 11:48:09 435.000/436.395/437.385
QB50P2 27 Jan 11:42:11 11:44:37 14° 271° (W) 11:46:54 145.880/145.840
Oscar 19 27 Jan 11:43:16 11:47:08 22° 63° (ENE) 11:51:07 437.125/150
AIST 2 27 Jan 11:43:26 11:47:28 38° 48° (NE) 11:51:28 435.215
PHONESAT 2.4 27 Jan 11:46:47 11:50:15 44° 172° (S) 11:53:45 2401.200-2431.200
QB50P1 27 Jan 11:53:30 11:54:56 11° 273° (W) 11:56:06 145.935-145.965
ITAMSAT 1 27 Jan 11:57:19 11:58:38 11° 56° (ENE) 12:00:13 435.822/435.867
BEESAT 2 27 Jan 11:59:15 12:03:26 70° 238° (WSW) 12:07:32 435.950
VELOX 1 27 Jan 12:05:13 12:09:00 26° 293° (WNW) 12:12:41 145.980
SPROUT 27 Jan 12:13:59 12:18:11 46° 98° (E) 12:22:23 437.525
BEESAT 3 27 Jan 12:15:52 12:19:48 41° 242° (WSW) 12:23:40 437.485
RS-15 27 Jan 12:16:03 12:26:08 37° 30° (NNE) 12:36:44 29.354- 29.394
CUBEBUG 1 27 Jan 12:19:58 12:24:09 40° 289° (WNW) 12:28:17 437.445
AIST 1 27 Jan 12:25:09 12:29:10 39° 284° (WNW) 12:33:11
SWISSCUBE 27 Jan 12:25:38 12:25:57 10° 86° (E) 12:26:37 437.505
SO-50 27 Jan 12:27:40 12:31:45 29° 318° (NW) 12:35:54 436.795
VERMONT LUNAR 27 Jan 12:39:02 12:42:25 45° 187° (S) 12:45:48 437.305
Gurwin Techsat 1B 27 Jan 12:39:03 12:42:32 19° 61° (ENE) 12:46:12 435.225
BEESAT 27 Jan 12:40:05 12:42:26 14° 88° (E) 12:45:02 436.000
ITUPSAT 1 27 Jan 12:42:26 12:44:57 15° 88° (E) 12:47:41 437.325
GONETS M04 27 Jan 12:47:34 12:56:19 78° 80° (E) 13:05:01
TISAT 1 27 Jan 12:58:41 13:02:57 60° 286° (WNW) 13:07:10 437.305
ESTCUBE 1 27 Jan 13:09:14 13:11:43 14° 298° (WNW) 13:14:02 437.505/2401.250
PCSat 27 Jan 13:13:08 13:18:11 38° 49° (NE) 13:23:16 145.827
Oscar 19 27 Jan 13:21:04 13:26:10 53° 260° (W) 13:31:16 437.125/150
AIST 2 27 Jan 13:22:24 13:25:56 25° 246° (WSW) 13:29:21 435.215
PHONESAT 2.4 27 Jan 13:25:05 13:28:35 44° 188° (S) 13:32:05 2401.200-2431.200
ITAMSAT 1 27 Jan 13:32:11 13:37:20 74° 74° (ENE) 13:42:32 435.822/435.867
AO-7 27 Jan 13:40:49 13:47:08 26° 53° (NE) 13:53:42 29.400- 29.500
SPROUT 27 Jan 13:50:55 13:54:00 19° 295° (WNW) 13:56:57 437.525
SWISSCUBE 27 Jan 13:59:49 14:04:38 89° 280° (W) 14:09:25 437.505
BEESAT 27 Jan 14:16:06 14:20:52 68° 286° (WNW) 14:25:36 436.000
Gurwin Techsat 1B 27 Jan 14:16:46 14:22:03 67° 258° (WSW) 14:27:22 435.225
VERMONT LUNAR 27 Jan 14:17:20 14:20:09 22° 202° (SSW) 14:22:57 437.305
ITUPSAT 1 27 Jan 14:18:39 14:23:24 65° 286° (WNW) 14:28:09 437.325
HORYU 2 27 Jan 14:22:48 14:27:07 48° 72° (ENE) 14:31:29 437.375
DANDE 27 Jan 14:24:32 14:30:00 23° 58° (ENE) 14:34:40 436.750
RS-15 27 Jan 14:28:41 14:40:05 87° 236° (SW) 14:51:59 29.354- 29.394
GONETS M04 27 Jan 14:45:48 14:52:19 23° 279° (W) 14:58:29
PCSat 27 Jan 14:56:41 15:01:36 35° 248° (WSW) 15:06:25 145.827
PHONESAT 2.4 27 Jan 15:03:58 15:06:44 20° 204° (SSW) 15:09:28 2401.200-2431.200
CUSAT 1 27 Jan 15:04:25 15:10:57 48° 70° (ENE) 15:15:54 437.405
STARS 27 Jan 15:08:59 15:13:26 62° 101° (E) 15:17:50 437.465
AUBIESAT-1 27 Jan 15:09:22 15:11:38 17° 99° (E) 15:14:00 437.475
KKS-1 27 Jan 15:10:39 15:15:11 85° 284° (WNW) 15:19:41 437.445
ITAMSAT 1 27 Jan 15:14:37 15:17:31 14° 272° (W) 15:20:10 435.822/435.867
AO-7 27 Jan 15:30:43 15:39:07 85° 252° (WSW) 15:47:34 29.400- 29.500
SWISSCUBE 27 Jan 15:39:59 15:41:52 12° 301° (WNW) 15:43:30 437.505
JAS-2 27 Jan 15:50:20 15:55:46 59° 73° (ENE) 16:00:55 435.910
HORYU 2 27 Jan 16:01:00 16:04:07 18° 269° (W) 16:07:06 437.375
DANDE 27 Jan 16:07:21 16:14:27 65° 265° (W) 16:19:43 436.750
M-CUBED/EXP-1 PRIME 27 Jan 16:08:31 16:11:49 66° 291° (WNW) 16:15:10 437.505
O/OREOS (USA 219) 27 Jan 16:14:51 16:18:49 33° 106° (ESE) 16:22:53 437.305
MOZHAYETS 4 27 Jan 16:35:18 16:39:24 32° 95° (E) 16:43:31
RS-15 27 Jan 16:42:39 16:51:15 24° 257° (WSW) 16:59:31 29.354- 29.394
AUBIESAT-1 27 Jan 16:43:49 16:46:40 26° 295° (WNW) 16:49:31 437.475
STARS 27 Jan 16:46:50 16:49:28 15° 298° (WNW) 16:51:56 437.465
CUSAT 1 27 Jan 16:48:16 16:53:26 25° 277° (W) 16:57:30 437.405
KKS-1 27 Jan 16:50:24 16:51:10 10° 301° (WNW) 16:51:43 437.445
Cubesat XI-IV 27 Jan 16:59:32 17:04:24 39° 68° (ENE) 17:09:23 437.490
CUTE-I 27 Jan 17:19:44 17:24:55 58° 72° (ENE) 17:30:11 437.470
AO-7 27 Jan 17:27:46 17:33:18 18° 273° (W) 17:38:22 29.400- 29.500
SO-50 27 Jan 17:37:24 17:39:52 14° 30° (NNE) 17:42:29 436.795
JAS-2 27 Jan 17:37:37 17:41:24 18° 270° (W) 17:44:49 435.910
PRISM 27 Jan 17:38:42 17:40:56 15° 90° (E) 17:43:21 437.425
HO-68 27 Jan 17:45:42 17:46:18 10° 45° (NE) 17:47:19 435.675
O/OREOS (USA 219) 27 Jan 17:54:23 17:58:17 27° 304° (NW) 18:02:10 437.305
YUBILEINY 27 Jan 17:58:09 18:00:51 12° 74° (ENE) 18:04:14 435.215
MOZHAYETS 4 27 Jan 18:12:42 18:16:34 27° 292° (WNW) 18:20:22
CUBESAT XI-V 27 Jan 18:22:08 18:26:22 33° 95° (E) 18:30:38 437.345
BRITE-PL 27 Jan 18:30:11 18:32:26 13° 58° (ENE) 18:35:00 437.365/2234.400
GOMX 1 27 Jan 18:36:40 18:37:39 11° 56° (NE) 18:38:55 467.674
Cubesat XI-IV 27 Jan 18:40:02 18:44:38 29° 266° (W) 18:49:13 437.490
SEEDS 27 Jan 18:56:12 18:56:33 10° 61° (ENE) 18:57:07 437.485
DOVE 4 27 Jan 18:56:50 18:58:38 12° 58° (ENE) 19:00:42 437.250
CUTE-I 27 Jan 19:01:36 19:05:29 20° 270° (W) 19:09:12 437.470
PRISM 27 Jan 19:12:48 19:16:49 50° 288° (WNW) 19:20:51 437.425
SO-50 27 Jan 19:16:38 19:21:30 58° 51° (NE) 19:26:23 436.795
STRAND 1 27 Jan 19:20:36 19:25:47 83° 104° (ESE) 19:30:57 437.568
COMPASS 1 27 Jan 19:23:01 19:25:37 17° 65° (ENE) 19:28:21 437.405
HO-68 27 Jan 19:25:45 19:32:28 47° 65° (ENE) 19:39:16 435.675
CANX-2 27 Jan 19:30:31 19:34:13 29° 69° (ENE) 19:37:58 2200.000
YUBILEINY 27 Jan 19:47:36 19:56:08 66° 93° (E) 20:04:46 435.215
AAUSAT CUBESAT 2 27 Jan 19:49:43 19:53:14 27° 69° (ENE) 19:56:48 437.432
Oscar 11 27 Jan 19:51:13 19:53:41 15° 64° (ENE) 19:56:19 145.826/435.025
CUTE 1.7 + AOD 2 27 Jan 19:54:28 19:58:35 47° 73° (ENE) 20:02:44 437.475
DELFI C3 27 Jan 19:57:10 19:59:02 13° 64° (ENE) 20:01:04 145.870
CUBESAT XI-V 27 Jan 19:59:45 20:03:45 28° 292° (WNW) 20:07:42 437.345
BRITE-PL 27 Jan 20:05:05 20:10:05 85° 75° (ENE) 20:15:33 437.365/2234.400
GOMX 1 27 Jan 20:09:48 20:14:47 69° 75° (ENE) 20:20:09 467.674
CUBEBUG 2 27 Jan 20:19:49 20:23:30 24° 66° (ENE) 20:27:20 437.445
UKube-1 27 Jan 20:24:46 20:27:57 21° 65° (ENE) 20:31:16 .
SEEDS 27 Jan 20:27:30 20:31:47 88° 256° (WSW) 20:36:05 437.485
DOVE 4 27 Jan 20:30:32 20:35:33 79° 75° (ENE) 20:40:51 437.250
CINEMA 3 27 Jan 20:31:10 20:35:53 48° 72° (ENE) 20:40:45 145.822/145.860
ZACube-1 27 Jan 20:35:27 20:39:02 23° 66° (ENE) 20:42:43 437.345
DX 1 27 Jan 20:42:39 20:46:30 32° 68° (ENE) 20:50:26 434.975-435.025
50 SAT 27 Jan 20:47:23 20:48:53 12° 63° (ENE) 20:50:34 437.505
FUNcube-1 27 Jan 20:47:36 20:51:33 30° 68° (ENE) 20:55:35 145.935
HUMSAT D 27 Jan 20:53:01 20:56:02 19° 66° (ENE) 20:59:10 437.325/437.525
COMPASS 1 27 Jan 20:56:54 21:01:01 49° 261° (W) 21:05:09 437.405
SO-50 27 Jan 20:58:03 21:01:43 20° 248° (WSW) 21:05:15 436.795
AISAT 27 Jan 20:59:28 21:02:37 20° 65° (ENE) 21:05:56 437.250
STRAND 1 27 Jan 21:01:31 21:04:23 15° 300° (WNW) 21:07:03 437.568
UWE-3 27 Jan 21:02:43 21:07:13 50° 72° (ENE) 21:11:48 435.000/436.395/437.385
CANX-2 27 Jan 21:06:29 21:10:10 27° 266° (W) 21:13:48 2200.000
HO-68 27 Jan 21:13:51 21:20:23 36° 264° (W) 21:26:50 435.675
AAUSAT CUBESAT 2 27 Jan 21:25:10 21:28:51 28° 265° (W) 21:32:29 437.432
Oscar 11 27 Jan 21:25:11 21:29:29 57° 260° (W) 21:33:48 145.826/435.025
VELOX 1 27 Jan 21:27:41 21:31:42 36° 69° (ENE) 21:35:48 145.980
DELFI C3 27 Jan 21:29:49 21:33:52 60° 260° (W) 21:37:54 145.870
CUTE 1.7 + AOD 2 27 Jan 21:32:00 21:34:51 16° 270° (W) 21:37:31 437.475
CUBEBUG 1 27 Jan 21:42:17 21:45:32 21° 66° (ENE) 21:48:54 437.445
YUBILEINY 27 Jan 21:46:20 21:53:46 29° 296° (WNW) 22:01:01 435.215
BRITE-PL 27 Jan 21:47:16 21:49:33 12° 277° (W) 21:51:36 437.365/2234.400
GOMX 1 27 Jan 21:50:25 21:53:36 16° 274° (W) 21:56:40 467.674
CUBEBUG 2 27 Jan 21:55:28 21:59:59 42° 263° (W) 22:04:33 437.445
UNISAT 6 27 Jan 21:56:52 21:59:43 17° 89° (E) 22:02:41 437.425
UKube-1 27 Jan 21:59:50 22:03:55 40° 262° (W) 22:08:01 .
QB50P1 27 Jan 22:01:07 22:01:49 10° 86° (E) 22:02:47 145.935-145.965
CINEMA 3 27 Jan 22:09:36 22:13:24 21° 270° (W) 22:17:09 145.822/145.860
ZACube-1 27 Jan 22:10:52 22:15:12 40° 263° (W) 22:19:34 437.345
DOVE 4 27 Jan 22:11:30 22:14:06 13° 275° (W) 22:16:29 437.250
POLYITAN 1 27 Jan 22:13:12 22:15:39 15° 89° (E) 22:18:15 437.675
ISS 27 Jan 22:15:30 22:18:19 27° 138° (SE) 22:21:10 145.825
DX 1 27 Jan 22:19:12 22:22:50 25° 266° (W) 22:26:24 434.975-435.025
TISAT 1 27 Jan 22:19:15 22:21:10 13° 62° (ENE) 22:23:17 437.305
50 SAT 27 Jan 22:19:23 22:23:31 71° 258° (WSW) 22:27:40 437.505
BUGSAT 1 27 Jan 22:20:47 22:22:53 14° 89° (E) 22:25:12 437.445
FUNcube-1 27 Jan 22:23:47 22:27:52 30° 265° (W) 22:31:56 145.935
HUMSAT D 27 Jan 22:27:22 22:31:33 45° 262° (W) 22:35:45 437.325/437.525
AIST 1 27 Jan 22:30:32 22:34:48 54° 79° (ENE) 22:39:06
ANTELSAT 27 Jan 22:31:46 22:35:58 39° 97° (E) 22:40:05 437.575/2403.000
ESTCUBE 1 27 Jan 22:31:47 22:36:16 74° 74° (ENE) 22:40:45 437.505/2401.250
POPSAT HIP 1 27 Jan 22:33:23 22:36:53 24° 93° (E) 22:40:26 437.405
AISAT 27 Jan 22:34:43 22:38:59 45° 261° (W) 22:43:18 437.250
DUCHIFAT 1 27 Jan 22:36:59 22:40:36 26° 94° (E) 22:44:14 145.980
TIGRISAT 27 Jan 22:40:28 22:44:49 47° 99° (E) 22:49:03 435.000
UWE-3 27 Jan 22:40:46 22:44:06 19° 270° (W) 22:47:19 435.000/436.395/437.385
VELOX 1 27 Jan 23:04:50 23:08:26 23° 267° (W) 23:11:57 145.980
SPROUT 27 Jan 23:09:35 23:13:38 42° 71° (ENE) 23:17:45 437.525
NANOSAT C BR1 27 Jan 23:10:44 23:15:01 61° 101° (E) 23:19:16 145.865
CUBEBUG 1 27 Jan 23:17:38 23:21:43 39° 263° (W) 23:25:49 437.445
QB50P2 27 Jan 23:24:03 23:28:24 87° 103° (ESE) 23:32:42 145.880/145.840
SWISSCUBE 27 Jan 23:32:29 23:35:12 16° 62° (ENE) 23:38:06 437.505
UNISAT 6 27 Jan 23:32:32 23:36:54 48° 288° (WNW) 23:41:06 437.425
QB50P1 27 Jan 23:34:01 23:38:21 75° 285° (WNW) 23:42:37 145.935-145.965
POLYITAN 1 27 Jan 23:47:45 23:51:59 52° 287° (WNW) 23:56:10 437.675
BEESAT 27 Jan 23:47:51 23:51:14 20° 64° (ENE) 23:54:45 436.000
ITUPSAT 1 27 Jan 23:50:35 23:54:03 21° 64° (ENE) 23:57:38 437.325
ISS 27 Jan 23:51:31 23:54:43 46° 335° (NNW) 23:57:55 145.825
TISAT 1 27 Jan 23:52:19 23:56:31 66° 259° (WSW) 00:00:47 437.305
BUGSAT 1 27 Jan 23:54:36 23:58:49 57° 287° (WNW) 00:03:02 437.445
GONETS M04 27 Jan 23:57:49 00:02:47 18° 78° (ENE) 00:08:13
POPSAT HIP 1 28 Jan 00:08:58 00:12:52 32° 291° (WNW) 00:16:41 437.405
ANTELSAT 28 Jan 00:09:04 00:12:34 22° 295° (WNW) 00:15:55 437.575/2403.000
AIST 1 28 Jan 00:09:47 00:12:04 14° 274° (W) 00:14:09
ESTCUBE 1 28 Jan 00:12:12 00:13:47 11° 273° (W) 00:15:06 437.505/2401.250
DUCHIFAT 1 28 Jan 00:12:41 00:16:29 30° 291° (WNW) 00:20:13 145.980
TIGRISAT 28 Jan 00:18:04 00:21:16 19° 296° (WNW) 00:24:17 435.000
KKS-1 28 Jan 00:36:43 00:38:28 12° 61° (ENE) 00:40:27 437.445
O/OREOS (USA 219) 28 Jan 00:45:33 00:47:10 12° 45° (NE) 00:48:59 437.305
SPROUT 28 Jan 00:46:53 00:50:00 19° 269° (W) 00:52:59 437.525
NANOSAT C BR1 28 Jan 00:48:02 00:50:28 14° 297° (WNW) 00:52:44 145.865
QB50P2 28 Jan 01:02:41 01:03:43 11° 299° (WNW) 01:04:31 145.880/145.840
SWISSCUBE 28 Jan 01:07:52 01:12:36 67° 258° (WSW) 01:17:22 437.505
BEESAT 28 Jan 01:24:10 01:28:47 50° 261° (W) 01:33:26 436.000
M-CUBED/EXP-1 PRIME 28 Jan 01:25:23 01:28:08 19° 63° (ENE) 01:30:52 437.505
ITUPSAT 1 28 Jan 01:27:04 01:31:40 48° 261° (W) 01:36:18 437.325
ISS 28 Jan 01:29:10 01:31:47 21° 355° (N) 01:34:25 145.825
Oscar 19 28 Jan 01:31:12 01:36:12 49° 99° (E) 01:41:10 437.125/150
ITAMSAT 1 28 Jan 01:44:17 01:48:23 24° 92° (E) 01:52:36 435.822/435.867
GONETS M04 28 Jan 01:49:41 01:58:27 84° 97° (E) 02:07:14
BEESAT 2 28 Jan 01:56:52 01:59:21 16° 112° (ESE) 02:01:58 435.950
AUBIESAT-1 28 Jan 01:58:53 02:02:35 37° 67° (ENE) 02:06:03 437.475
STARS 28 Jan 02:07:16 02:11:40 65° 74° (ENE) 02:16:07 437.465
KKS-1 28 Jan 02:10:04 02:14:33 79° 256° (WSW) 02:19:06 437.445
BEESAT 3 28 Jan 02:11:35 02:14:57 25° 115° (ESE) 02:18:26 437.485
O/OREOS (USA 219) 28 Jan 02:22:49 02:27:27 82° 66° (ENE) 02:32:03 437.305
Gurwin Techsat 1B 28 Jan 02:31:38 02:36:42 44° 98° (E) 02:41:47 435.225
CUSAT 1 28 Jan 02:34:30 02:37:23 13° 77° (ENE) 02:40:55 437.405
